Location: Charbonni�res
(45.9952°N, 2.9982°E)
Time: 17:07:16
(UTC+00:00)

Cosmos 1844 - Pass Details

Date: 29 November 2020
Orbit: 821 x 869 km, 70.9° (Epoch: 23 January)

Event Time Altitude Azimuth Distance (km) Brightness Sun altitude
Rises 06:07:19 0° 221° (SW) 3,342 6.6 -10.2°
Reaches altitude 10° 06:09:48 10° 227° (SW) 2,413 5.8 -9.8°
Maximum altitude 06:15:10 50° 302° (WNW) 1,038 3.8 -9.0°
Drops below altitude 10° 06:20:35 10° 18° (NNE) 2,440 6.1 -8.1°
Sets 06:23:07 0° 24° (NNE) 3,383 6.9 -7.7°
